N062SB LSZB-LSGS

Flight info

Callsign N062SB
Flight time 0h 31m
Altitude 14000
Route AMRID Z144 ESEVA Z669 VADAR
Aircraft DA62/L-SDFGRY/C

Departure

Time 2026-05-07 11:18
Airport Bern Airport (LSZB)

Arrival

Time 2026-05-07 11:50
Airport Sion Airport (LSGS)
Time Latitude Longitude Altitude Speed Heading
2026-05-07 11:13 46.91122 7.50321 1673 ft 0 kts 52°
2026-05-07 11:16 46.91103 7.50305 1673 ft 9 kts 244°
2026-05-07 11:16 46.91047 7.50313 1673 ft 16 kts 140°
2026-05-07 11:16 46.90951 7.50343 1673 ft 1 kts 179°
2026-05-07 11:17 46.90949 7.50343 1673 ft 2 kts 179°
2026-05-07 11:17 46.90933 7.50301 1673 ft 11 kts 314°
2026-05-07 11:17 46.91160 7.50020 1673 ft 74 kts 318°
2026-05-07 11:17 46.91590 7.49493 1930 ft 77 kts 319°
2026-05-07 11:18 46.92002 7.49010 2234 ft 77 kts 318°
2026-05-07 11:18 46.92271 7.48367 2521 ft 76 kts 276°
2026-05-07 11:18 46.92277 7.47576 2781 ft 80 kts 270°
2026-05-07 11:18 46.92319 7.46717 2970 ft 93 kts 275°
2026-05-07 11:19 46.92435 7.45738 3212 ft 102 kts 281°
2026-05-07 11:19 46.92616 7.44681 3455 ft 111 kts 284°
2026-05-07 11:19 46.92845 7.43561 3690 ft 118 kts 286°
2026-05-07 11:19 46.93106 7.42400 3921 ft 124 kts 287°
2026-05-07 11:20 46.93393 7.41182 4150 ft 129 kts 288°
2026-05-07 11:20 46.93694 7.39928 4383 ft 132 kts 288°
2026-05-07 11:20 46.94004 7.38659 4608 ft 135 kts 288°
2026-05-07 11:20 46.94323 7.37361 4839 ft 137 kts 288°
2026-05-07 11:21 46.94645 7.36045 5065 ft 138 kts 288°
2026-05-07 11:21 46.94971 7.34725 5292 ft 139 kts 288°
2026-05-07 11:21 46.95298 7.33404 5515 ft 138 kts 288°
2026-05-07 11:21 46.95621 7.32082 5739 ft 138 kts 288°
2026-05-07 11:22 46.95947 7.30762 5965 ft 138 kts 288°
2026-05-07 11:22 46.96027 7.29413 6187 ft 136 kts 253°
2026-05-07 11:22 46.95645 7.28154 6420 ft 134 kts 239°
2026-05-07 11:22 46.95134 7.27007 6647 ft 134 kts 233°
2026-05-07 11:23 46.94577 7.25932 6870 ft 134 kts 230°
2026-05-07 11:23 46.93990 7.24874 7095 ft 134 kts 229°
2026-05-07 11:23 46.93391 7.23827 7321 ft 135 kts 229°
2026-05-07 11:23 46.92780 7.22772 7548 ft 135 kts 228°
2026-05-07 11:24 46.92171 7.21729 7776 ft 135 kts 228°
2026-05-07 11:24 46.91568 7.20703 7996 ft 135 kts 228°
2026-05-07 11:24 46.90948 7.19649 8226 ft 135 kts 228°
2026-05-07 11:24 46.90335 7.18610 8449 ft 136 kts 228°
2026-05-07 11:25 46.89724 7.17571 8674 ft 136 kts 228°
2026-05-07 11:25 46.89107 7.16523 8901 ft 136 kts 229°
2026-05-07 11:25 46.88487 7.15471 9127 ft 136 kts 228°
2026-05-07 11:25 46.87867 7.14419 9354 ft 136 kts 228°
2026-05-07 11:26 46.87253 7.13380 9576 ft 137 kts 228°
2026-05-07 11:26 46.86554 7.12442 9804 ft 136 kts 211°
2026-05-07 11:26 46.85734 7.11737 9997 ft 139 kts 208°
2026-05-07 11:26 46.84849 7.11024 10015 ft 152 kts 208°
2026-05-07 11:27 46.83893 7.10268 10018 ft 161 kts 208°
2026-05-07 11:27 46.82879 7.09471 10015 ft 167 kts 208°
2026-05-07 11:27 46.81850 7.08666 10012 ft 171 kts 208°
2026-05-07 11:27 46.80792 7.07838 10011 ft 173 kts 208°
2026-05-07 11:28 46.79723 7.07005 10010 ft 174 kts 208°
2026-05-07 11:28 46.78645 7.06165 10009 ft 175 kts 208°
2026-05-07 11:28 46.77581 7.05335 10010 ft 176 kts 208°
2026-05-07 11:28 46.76490 7.04486 10009 ft 176 kts 208°
2026-05-07 11:29 46.75412 7.03646 10009 ft 176 kts 208°
2026-05-07 11:29 46.74314 7.02876 9998 ft 177 kts 194°
2026-05-07 11:29 46.73134 7.03228 10020 ft 176 kts 151°
2026-05-07 11:29 46.72147 7.04305 10009 ft 178 kts 133°
2026-05-07 11:30 46.71394 7.05719 10011 ft 178 kts 124°
2026-05-07 11:30 46.70740 7.07268 10010 ft 178 kts 120°
2026-05-07 11:30 46.70273 7.08479 10009 ft 178 kts 119°
2026-05-07 11:30 46.70219 7.08624 10009 ft 178 kts 119°
2026-05-07 11:31 46.69636 7.10199 10009 ft 178 kts 118°
2026-05-07 11:31 46.69048 7.11810 10009 ft 179 kts 118°
2026-05-07 11:31 46.68470 7.13410 10009 ft 179 kts 118°
2026-05-07 11:31 46.67894 7.14998 10009 ft 179 kts 118°
2026-05-07 11:32 46.66734 7.18199 10009 ft 179 kts 118°
2026-05-07 11:32 46.66153 7.19801 10009 ft 179 kts 118°
2026-05-07 11:32 46.65578 7.21388 10009 ft 179 kts 118°
2026-05-07 11:33 46.64999 7.22981 10009 ft 179 kts 118°
2026-05-07 11:33 46.64418 7.24582 10009 ft 179 kts 117°
2026-05-07 11:33 46.63834 7.26186 10009 ft 179 kts 118°
2026-05-07 11:33 46.63253 7.27783 10009 ft 179 kts 118°
2026-05-07 11:34 46.62673 7.29381 10009 ft 179 kts 118°
2026-05-07 11:34 46.62091 7.30975 10009 ft 179 kts 118°
2026-05-07 11:34 46.61516 7.32554 10008 ft 179 kts 118°
2026-05-07 11:34 46.60932 7.34155 10008 ft 179 kts 118°
2026-05-07 11:35 46.60354 7.35742 10044 ft 177 kts 118°
2026-05-07 11:35 46.59786 7.37298 10140 ft 173 kts 118°
2026-05-07 11:35 46.59228 7.38824 10236 ft 170 kts 118°
2026-05-07 11:35 46.58674 7.40342 10334 ft 169 kts 118°
2026-05-07 11:36 46.58125 7.41844 10433 ft 168 kts 118°
2026-05-07 11:36 46.57579 7.43335 10532 ft 167 kts 118°
2026-05-07 11:36 46.57032 7.44829 10631 ft 167 kts 118°
2026-05-07 11:36 46.56496 7.46296 10730 ft 166 kts 118°
2026-05-07 11:37 46.55949 7.47787 10830 ft 166 kts 118°
2026-05-07 11:37 46.55407 7.49266 10929 ft 166 kts 118°
2026-05-07 11:37 46.54863 7.50745 11028 ft 166 kts 118°
2026-05-07 11:37 46.54313 7.52246 11130 ft 166 kts 117°
2026-05-07 11:38 46.53772 7.53722 11229 ft 167 kts 118°
2026-05-07 11:38 46.53224 7.55210 11330 ft 167 kts 117°
2026-05-07 11:38 46.52676 7.56703 11431 ft 167 kts 118°
2026-05-07 11:38 46.52129 7.58169 11528 ft 167 kts 120°
2026-05-07 11:39 46.51476 7.59550 11632 ft 166 kts 125°
2026-05-07 11:39 46.50811 7.60919 11781 ft 163 kts 126°
2026-05-07 11:39 46.50162 7.62245 11927 ft 161 kts 126°
2026-05-07 11:39 46.49509 7.63573 12076 ft 160 kts 127°
2026-05-07 11:40 46.48842 7.64856 12148 ft 164 kts 127°
2026-05-07 11:40 46.48143 7.66192 12146 ft 170 kts 128°
2026-05-07 11:40 46.47410 7.67565 12143 ft 174 kts 130°
2026-05-07 11:40 46.46611 7.68890 12143 ft 176 kts 132°
2026-05-07 11:41 46.45767 7.70182 12128 ft 177 kts 146°
2026-05-07 11:41 46.44600 7.70723 12141 ft 176 kts 161°
2026-05-07 11:41 46.43460 7.71367 12127 ft 177 kts 160°
2026-05-07 11:41 46.42308 7.71997 12021 ft 175 kts 163°
2026-05-07 11:42 46.41114 7.71919 11913 ft 173 kts 192°
2026-05-07 11:42 46.39945 7.71425 11706 ft 178 kts 208°
2026-05-07 11:42 46.38877 7.70510 11480 ft 182 kts 210°
2026-05-07 11:42 46.37784 7.69540 11184 ft 183 kts 211°
2026-05-07 11:43 46.36735 7.68512 10886 ft 183 kts 217°
2026-05-07 11:43 46.35717 7.67383 10454 ft 190 kts 217°
2026-05-07 11:43 46.34741 7.66090 9960 ft 195 kts 228°
2026-05-07 11:43 46.33832 7.64641 9465 ft 197 kts 227°
2026-05-07 11:44 46.32917 7.63163 8964 ft 198 kts 227°
2026-05-07 11:44 46.32003 7.61700 8465 ft 197 kts 227°
2026-05-07 11:44 46.31089 7.60234 7964 ft 196 kts 227°
2026-05-07 11:44 46.30184 7.58780 7464 ft 195 kts 227°
2026-05-07 11:45 46.29290 7.57341 6965 ft 193 kts 228°
2026-05-07 11:45 46.28441 7.55851 6467 ft 192 kts 238°
2026-05-07 11:45 46.27834 7.54149 6041 ft 187 kts 240°
2026-05-07 11:45 46.27237 7.52495 5613 ft 185 kts 242°
2026-05-07 11:46 46.26657 7.50857 5187 ft 183 kts 243°
2026-05-07 11:46 46.26079 7.49226 4760 ft 182 kts 243°
2026-05-07 11:46 46.25516 7.47623 4334 ft 179 kts 243°
2026-05-07 11:46 46.24994 7.46030 4049 ft 168 kts 246°
2026-05-07 11:47 46.24544 7.44568 4000 ft 150 kts 246°
2026-05-07 11:47 46.24134 7.43232 3816 ft 146 kts 245°
2026-05-07 11:47 46.23763 7.41855 3563 ft 147 kts 253°
2026-05-07 11:47 46.23470 7.40422 3193 ft 154 kts 253°
2026-05-07 11:48 46.23208 7.38989 2727 ft 135 kts 255°
2026-05-07 11:48 46.22984 7.37869 2449 ft 107 kts 253°
2026-05-07 11:48 46.22778 7.36853 2155 ft 104 kts 253°
2026-05-07 11:48 46.22591 7.35887 1952 ft 98 kts 254°
2026-05-07 11:49 46.22430 7.35020 1814 ft 83 kts 251°
2026-05-07 11:49 46.22264 7.34229 1672 ft 82 kts 252°
2026-05-07 11:49 46.22099 7.33473 1607 ft 72 kts 252°
2026-05-07 11:49 46.21975 7.32888 1601 ft 54 kts 250°
2026-05-07 11:50 46.21889 7.32479 1595 ft 20 kts 253°
2026-05-07 11:50 46.21822 7.32180 1594 ft 33 kts 247°
2026-05-07 11:50 46.21740 7.32185 1593 ft 22 kts 73°
2026-05-07 11:50 46.21762 7.32363 1594 ft 5 kts 130°
2026-05-07 11:51 46.21719 7.32407 1593 ft 0 kts 160°